Current weather by "City, St" or "zip code"  
 
Advertise Here

Current Conditions: Monticello Regional Airport, IA

Overcast


36.0 F

Last Updated on Nov 23 2020, 9:55 pm CST
Humidity: 87%
Wind Speed: SE 5.8 mph
Barometer 30.23 in
Dewpoint: 32.0 F
Visibility: 10.00 mi
Precip: --
Heat Index: NA
Wind Chill: 31 F
Current conditions at:

Monticello Regional Airport, IA (KMXO)

Lat: 42.22035 Lon: 91.16041

Local Radar Image active severe weather and emergency alerts image image weather storm and storm spotter reports image weather observation monitoring service image
Local
Radar
Active
Alerts
Storm Reports Obs
Monitoring

Sign-up For Email & Text Message Weather Alert Notification Services


Advertise Here

Observation History for Monticello Regional Airport, IA


Time Wind
(mph)
Vis
(mi)
Weather Precip (in) Temperature (F) Relative
Humidity
Wind
Chill
(F)
Heat
Index
(F)
Pressure
Air Dwpt altimeter
(in)
sea level
(mb)
Rmks
9:55 pm CST SE 5.8 10.00 Overcast -- 36.0 32.0 87% 31 NA 30.23 M
8:55 pm CST SE 4.6 10.00 Overcast -- 36.0 32.0 87% 32 NA 30.23 M
7:55 pm CST N 0.0 7.00 Overcast -- 36.0 32.0 87% NA NA 30.25 M
6:55 pm CST SE 3.5 10.00 Overcast -- 34.0 32.0 93% NA NA 30.25 M
5:55 pm CST N 0.0 10.00 Overcast -- 32.0 30.2 93% NA NA 30.26 M
4:35 pm CST N 0.0 10.00 Fair -- 34.0 28.4 81% NA NA 30.27 M
2:55 pm CST N 0.0 10.00 Fair -- 39.0 28.4 65% NA NA 30.27 M
1:55 pm CST N 0.0 10.00 Fair -- 39.0 28.4 65% NA NA 30.28 M
12:55 pm CST N 0.0 10.00 Fair -- 39.0 28.4 65% NA NA 30.30 M
11:55 am CST N 0.0 10.00 Fair -- 39.0 30.2 70% NA NA 30.33 M
10:55 am CST N 0.0 10.00 Fair -- 36.0 30.2 81% NA NA 30.33 M
9:55 am CST 3.5 10.00 Fair -- 32.0 28.4 87% NA NA 30.33 M
8:55 am CST N 0.0 10.00 Fair -- 28.0 26.6 93% NA NA 30.34 M
7:55 am CST N 0.0 10.00 Fair -- 23.0 23.0 100% NA NA 30.34 M
6:55 am CST N 0.0 10.00 Fair -- 21.0 21.2 100% NA NA 30.32 M
5:55 am CST N 0.0 10.00 Fair -- 23.0 23.0 100% NA NA 30.30 M
4:35 am CST W 3.5 10.00 Fair -- 23.0 23.0 100% NA NA 30.29 M
3:55 am CST W 3.5 10.00 Fair -- 23.0 23.0 100% NA NA 30.28 M
2:55 am CST W 3.5 10.00 Fair -- 27.0 26.6 100% NA NA 30.27 M
1:55 am CST W 5.8 10.00 Fair -- 28.0 28.4 100% 22 NA 30.26 M
12:55 am CST NW 6.9 10.00 Fair -- 30.0 28.4 93% 23 NA 30.26 M
11:55 pm CST NW 9.2 10.00 Fair -- 32.0 30.2 93% 24 NA 30.25 M
10:55 pm CST W 6.9 10.00 Fair -- 32.0 30.2 93% 26 NA 30.23 M

Regional Weather Observation


Independence, Independence Municipal Airport, IA (KIIB)

Overcast
34.0 F

Oelwein Municipal Airport, IA (KOLZ)

Overcast
34.0 F

Dubuque Regional Airport, IA (KDBQ)

Light Snow
34.0 F

Vinton, Vinton Veterans Memorial Airpark Airport, IA (KVTI)

Overcast
38.0 F

Platteville Municipal Airport, WI (KPVB)

Overcast
33.0 F

Cedar Rapids Airport, IA (KCID)

Overcast
34.0 F